Chillicothe, MO

2:12 PM CST on February 13, 2016 (GMT -0600)
Chillicothe

Weather History for KCDJ - January, 2013

Change the Weather History Date:

Tuesday, January 1, 2013

  Actual Average (KIRK) Record (KIRK)
Temperature  
Mean Temperature 14 °F 26 °F  
Max Temperature 21 °F 35 °F - ()
Min Temperature 8 °F 18 °F - ()
Degree Days  
Heating Degree Days 50 39  
Month to date heating degree days 39  
Since 1 July heating degree days 2382  
Cooling Degree Days 0 0  
Month to date cooling degree days 0  
Year to date cooling degree days 0  
Moisture  
Dew Point 6 °F    
Average Humidity 72    
Maximum Humidity 87    
Minimum Humidity 50    
Precipitation  
Precipitation 0.00 in 0.04 in - ()
Month to date precipitation 0.04  
Year to date precipitation 0.04  
Sea Level Pressure  
Sea Level Pressure 30.34 in    
Wind  
Wind Speed 5 mph (NNW)    
Max Wind Speed 10 mph    
Max Gust Speed 17 mph    
T = Trace of Precipitation, MM = Missing Value Source: NWS Daily Summary

Daily Weather History Graph

Daily Weather History Graph

Search for Another Location

Airport or City:

Trip Planner

Search our weather history database for the weather conditions in past years. The results will help you decide how hot, cold, wet, or windy it might be!

Date:

Astronomy

Jan. 01, 2013 Rise Set
Actual Time 7:35 AM CST 5:00 PM CST
Civil Twilight 7:05 AM CST 5:30 PM CST
Nautical Twilight 6:31 AM CST 6:04 PM CST
Astronomical Twilight 5:58 AM CST 6:37 PM CST
Moon 9:31 PM CST (1/1) 9:48 AM CST (1/1)
Length of Visible Light 10h 25m
Length of Day
9h 24m
Waning Gibbous, 83% of the Moon is Illuminated
Jan 1
Waning Gibbous
Jan 4
Last Quarter
Jan 11
New
Jan 18
First Quarter
Jan 26
Full

Hourly Weather History & Observations

Time (CST) Temp. Windchill Dew Point Humidity Pressure Visibility Wind Dir Wind Speed Gust Speed Precip Events Conditions
12:52 AM 18.0 °F 7.7 °F 10.9 °F 74% 30.26 in - North 8.1 mph - N/A   Unknown
1:52 AM 16.0 °F 10.4 °F 9.0 °F 74% 30.28 in - North 3.5 mph - N/A   Unknown
2:52 AM 12.9 °F 6.9 °F 9.0 °F 84% 30.30 in - NNW 3.5 mph - N/A   Unknown
3:52 AM 12.9 °F 5.2 °F 8.1 °F 81% 30.31 in - North 4.6 mph - N/A   Unknown
4:52 AM 12.9 °F 1.6 °F 6.1 °F 74% 30.30 in - North 8.1 mph - N/A   Unknown
5:52 AM 12.9 °F -0.2 °F 5.0 °F 71% 30.30 in - North 10.4 mph 17.3 mph N/A   Unknown
6:52 AM 10.9 °F 2.9 °F 5.0 °F 77% 30.33 in - NNW 4.6 mph - N/A   Unknown
7:52 AM 9.0 °F -0.9 °F 3.9 °F 80% 30.34 in - North 5.8 mph - N/A   Unknown
8:52 AM 12.0 °F 4.1 °F 3.9 °F 70% 30.39 in - Variable 4.6 mph - N/A   Unknown
9:52 AM 14.0 °F 8.2 °F 3.9 °F 64% 30.40 in - Variable 3.5 mph - N/A   Unknown
10:52 AM 16.0 °F 8.8 °F 5.0 °F 62% 30.40 in - North 4.6 mph - N/A   Unknown
11:52 AM 16.0 °F 7.4 °F 6.1 °F 65% 30.38 in - NNW 5.8 mph - N/A   Unknown
12:52 PM 19.0 °F 11.1 °F 7.0 °F 59% 30.35 in - North 5.8 mph - N/A   Unknown
1:52 PM 19.9 °F 13.4 °F 6.1 °F 55% 30.36 in - NNW 4.6 mph - N/A   Unknown
2:52 PM 21.0 °F - 6.1 °F 53% 30.35 in - Calm Calm - N/A   Unknown
3:52 PM 21.0 °F 16.2 °F 5.0 °F 50% 30.35 in - WNW 3.5 mph - N/A   Unknown
4:52 PM 19.9 °F 13.4 °F 8.1 °F 60% 30.35 in - SW 4.6 mph - N/A   Unknown
5:52 PM 17.1 °F - 7.0 °F 65% 30.34 in - Calm Calm - N/A   Unknown
6:52 PM 12.0 °F - 6.1 °F 77% 30.35 in - Calm Calm - N/A   Unknown
7:52 PM 10.0 °F - 6.1 °F 84% 30.36 in - Calm Calm - N/A   Unknown
8:52 PM 9.0 °F - 5.0 °F 84% 30.34 in - Calm Calm - N/A   Unknown
9:52 PM 8.1 °F - 5.0 °F 87% 30.34 in - Calm Calm - N/A   Unknown
10:52 PM 8.1 °F - 3.9 °F 83% 30.34 in - Calm Calm - N/A   Unknown
11:52 PM 8.1 °F - 3.9 °F 83% 30.32 in - Calm Calm - N/A   Unknown